This is the latest recevied weather packets stored in our database for station/object JE4YKI-13. If no packets are shown the sender has not sent any weather packets the latest 10 day(s).
| Time | Temp. | Humidity | Pressure | Rain* | Wind** | Luminosity | Snow |
|---|---|---|---|---|---|---|---|
| 1777557898 | 13.89° C | 95% | 1007.5 hPa | 0 mm | - | - | - |
| 1777557296 | 13.89° C | 94% | 1007.6 hPa | 0 mm | - | - | - |
| 1777556696 | 14.44° C | 94% | 1008 hPa | 0 mm | - | - | - |
| 1777556095 | 14.44° C | 94% | 1008.1 hPa | 0 mm | - | - | - |
| 1777555495 | 14.44° C | 94% | 1008 hPa | 0 mm | - | - | - |
| 1777554895 | 13.89° C | 95% | 1008.2 hPa | 0 mm | - | - | - |
| 1777554295 | 13.89° C | 95% | 1008.4 hPa | 0 mm | - | - | - |
| 1777553695 | 13.89° C | 95% | 1008.7 hPa | 0 mm | - | - | - |
| 1777553094 | 13.89° C | 94% | 1008.5 hPa | 0 mm | - | - | - |
| 1777552494 | 13.89° C | 95% | 1008.6 hPa | 0 mm | - | - | - |
| 1777551893 | 13.89° C | 95% | 1008.8 hPa | 0 mm | - | - | - |
| 1777551293 | 13.89° C | 95% | 1008.8 hPa | 0 mm | - | - | - |
| 1777550692 | 13.89° C | 95% | 1009 hPa | 0 mm | - | - | - |
| 1777550092 | 13.89° C | 95% | 1009.2 hPa | 0 mm | - | - | - |
| 1777549492 | 13.89° C | 95% | 1009.1 hPa | 0 mm | - | - | - |
| 1777548891 | 13.89° C | 95% | 1009.4 hPa | 0 mm | - | - | - |
| 1777548291 | 13.89° C | 95% | 1009.5 hPa | 0 mm | - | - | - |
| 1777547691 | 13.89° C | 95% | 1009.6 hPa | 1.52 mm | - | - | - |
| 1777547090 | 13.89° C | 95% | 1009.7 hPa | 2.03 mm | - | - | - |
| 1777545889 | 13.89° C | 95% | 1009.8 hPa | 3.81 mm | - | - | - |
| 1777545321 | 13.89° C | 94% | 1009.8 hPa | 1.52 mm | - | - | - |
| 1777545289 | 13.89° C | 94% | 1009.8 hPa | 1.52 mm | - | - | - |
| 1777544689 | 13.89° C | 94% | 1010 hPa | 0 mm | - | - | - |
| 1777544088 | 13.89° C | 94% | 1009.9 hPa | 1.78 mm | - | - | - |
| 1777542887 | 13.89° C | 93% | 1009.8 hPa | 0 mm | - | - | - |
* Rain latest hour (hover to see other rain measurements)
** Current wind speed in m/s (hover to see current wind gust speed)